Location: Freiburg+im+Breisgau
(48.0359°N, 7.8195°E)
Time: 16:53:58
(UTC+01:00)

Amateur Radio Satellites - All Passes

Search period start: 23 January 2018 16:23
Search period end: 24 January 2018 16:23
Location: Freiburg+im+Breisgau, 48.0359°N, 7.8195°E

Satellite Date Start Highest point End Downlink Frequencies (MHz)
Time Altitude Azimuth
NO-84 23 Jan 16:24:09 16:26:42 23° 137° (SE) 16:29:09 435.350 FM
KAITUO 1B 23 Jan 16:25:45 16:26:37 11° 59° (ENE) 16:27:28 145.475/437.950
AO-7 23 Jan 16:27:06 16:34:01 28° 267° (W) 16:41:00 .
BEESAT 23 Jan 16:28:25 16:33:14 80° 287° (WNW) 16:38:01 436.000
XW-2F 23 Jan 16:30:42 16:32:59 16° 63° (ENE) 16:35:17 145.980 - 146.000
NUDT-PHONESAT 23 Jan 16:31:14 16:32:29 11° 60° (ENE) 16:33:44 437.300
PCSat 23 Jan 16:31:19 16:35:16 20° 32° (NNE) 16:39:12 145.827
ITAMSAT 1 23 Jan 16:39:43 16:43:36 21° 268° (W) 16:47:30 435.822/435.867
XW-2D 23 Jan 16:42:00 16:44:59 22° 66° (ENE) 16:47:58 145.860 - 145.880
UKube-1 23 Jan 16:44:10 16:45:52 12° 304° (WNW) 16:47:35 .
CUTE-I 23 Jan 16:51:36 16:56:14 31° 63° (ENE) 17:00:52 437.470
AO-85 23 Jan 16:56:29 16:57:50 11° 12° (NNE) 16:59:12 145.980
XW-2B 23 Jan 16:59:13 17:02:37 31° 69° (ENE) 17:06:01 145.730 - 145.750
KKS-1 23 Jan 17:06:10 17:09:32 21° 93° (E) 17:12:52 437.445
BEESAT 2 23 Jan 17:11:17 17:14:19 20° 34° (NE) 17:17:18 435.950
M-CUBED/EXP-1 PRIME 23 Jan 17:12:01 17:15:15 21° 260° (W) 17:18:20 437.505
SEEDS 23 Jan 17:13:48 17:14:45 11° 57° (ENE) 17:15:42 437.485
DOVE 4 23 Jan 17:14:58 17:18:33 27° 265° (W) 17:22:06 437.250
STARS 23 Jan 17:16:21 17:17:07 10° 87° (E) 17:17:52 437.465
RS-15 23 Jan 17:22:53 17:34:34 72° 240° (WSW) 17:45:37 29.354- 29.394
HO-68 23 Jan 17:27:08 17:33:45 43° 61° (ENE) 17:40:24 435.675
ITUPSAT 1 23 Jan 17:28:54 17:32:52 26° 298° (WNW) 17:36:49 437.325
CUTE 1.7 + AOD 2 23 Jan 17:29:03 17:32:25 23° 65° (ENE) 17:35:47 437.475
XW-2C 23 Jan 17:29:16 17:33:04 70° 75° (ENE) 17:36:52 145.795 - 145.815
LilacSat-2 23 Jan 17:30:36 17:34:27 78° 75° (ENE) 17:38:18 437.200
MOZHAYETS 4 23 Jan 17:35:12 17:37:22 13° 304° (WNW) 17:39:32
CUBESAT XI-V 23 Jan 17:44:04 17:48:07 31° 294° (WNW) 17:52:08 437.345
BEESAT 3 23 Jan 17:53:39 17:57:36 74° 234° (SW) 18:01:26 437.485
KAITUO 1B 23 Jan 17:56:14 17:59:59 81° 255° (WSW) 18:03:45 145.475/437.950
NO-84 23 Jan 18:00:45 18:03:42 49° 334° (NNW) 18:06:31 435.350 FM
NUDT-PHONESAT 23 Jan 18:02:02 18:05:45 74° 257° (WSW) 18:09:30 437.300
XW-2F 23 Jan 18:02:59 18:06:42 52° 260° (W) 18:10:26 145.980 - 146.000
BEESAT 23 Jan 18:08:04 18:10:13 13° 305° (NW) 18:12:23 436.000
CUBEBUG 2 23 Jan 18:08:57 18:13:05 38° 68° (ENE) 18:17:21 437.445
UWE-3 23 Jan 18:09:02 18:12:40 24° 63° (ENE) 18:16:22 435.000/436.395/437.385
PCSat 23 Jan 18:14:09 18:19:37 73° 54° (NE) 18:25:02 145.827
XW-2D 23 Jan 18:15:29 18:18:58 34° 263° (W) 18:22:29 145.860 - 145.880
AAUSAT CUBESAT 2 23 Jan 18:19:43 18:22:48 21° 64° (ENE) 18:25:54 437.432
ZACube-1 23 Jan 18:26:44 18:30:02 21° 62° (ENE) 18:33:24 437.345
CUTE-I 23 Jan 18:31:07 18:36:09 43° 262° (W) 18:41:12 437.470
AO-73 23 Jan 18:31:44 18:35:02 20° 62° (ENE) 18:38:23 145.935
XW-2B 23 Jan 18:33:43 18:36:49 23° 266° (W) 18:39:55 145.730 - 145.750
STRAND 1 23 Jan 18:35:01 18:36:52 12° 86° (E) 18:38:43 437.568
AO-85 23 Jan 18:35:50 18:39:52 26° 36° (NE) 18:44:06 145.980
KKS-1 23 Jan 18:42:01 18:46:19 48° 290° (WNW) 18:50:36 437.445
SEEDS 23 Jan 18:45:30 18:49:43 82° 75° (ENE) 18:53:56 437.485
BEESAT 2 23 Jan 18:48:27 18:52:28 75° 236° (SW) 18:56:26 435.950
STARS 23 Jan 18:49:39 18:54:06 88° 104° (ESE) 18:58:33 437.465
Oscar 11 23 Jan 19:01:34 19:05:04 24° 64° (ENE) 19:08:35 .
CUTE 1.7 + AOD 2 23 Jan 19:04:01 19:08:02 40° 262° (W) 19:12:04 437.475
XW-2C 23 Jan 19:06:38 19:07:41 11° 272° (W) 19:08:44 145.795 - 145.815
XW-2A 23 Jan 19:12:00 19:15:21 55° 74° (ENE) 19:18:43 145.665 - 145.685
HO-68 23 Jan 19:14:38 19:21:27 46° 261° (W) 19:28:18 435.675
FO-29 23 Jan 19:24:19 19:27:12 15° 88° (E) 19:30:06 435.910
nSIGHT-1 23 Jan 19:30:06 19:32:07 16° 137° (SE) 19:34:07 .
RS-15 23 Jan 19:37:29 19:44:38 19° 264° (W) 19:51:37 29.354- 29.394
NO-84 23 Jan 19:39:02 19:41:19 20° 354° (N) 19:43:32 435.350 FM
UWE-3 23 Jan 19:44:35 19:48:52 44° 262° (W) 19:53:17 435.000/436.395/437.385
CUBEBUG 2 23 Jan 19:46:04 19:49:49 26° 267° (W) 19:53:40 437.445
AAUSAT CUBESAT 2 23 Jan 19:54:04 19:58:00 43° 262° (W) 20:01:56 437.432
ISS 23 Jan 19:54:41 19:57:01 18° 139° (SE) 19:59:22 437.550
PCSat 23 Jan 19:58:34 20:02:26 20° 253° (WSW) 20:06:17 145.827
ZACube-1 23 Jan 20:01:32 20:05:56 54° 260° (W) 20:10:27 437.345
DELFI C3 23 Jan 20:04:25 20:07:15 20° 64° (ENE) 20:10:06 145.870
AO-73 23 Jan 20:06:28 20:10:52 54° 261° (W) 20:15:22 145.935
Max Valier Satellite 23 Jan 20:08:20 20:10:23 14° 62° (ENE) 20:12:26 145.860
STRAND 1 23 Jan 20:11:40 20:16:51 82° 104° (ESE) 20:22:01 437.568
AO-85 23 Jan 20:15:50 20:20:45 75° 234° (SW) 20:25:58 145.980
EO-88 23 Jan 20:20:31 20:22:11 13° 61° (ENE) 20:23:51 145.990 - 145.960
SEEDS 23 Jan 20:24:49 20:25:57 11° 273° (W) 20:27:06 437.485
STARS 23 Jan 20:27:43 20:29:47 13° 303° (WNW) 20:31:51 437.465
Oscar 11 23 Jan 20:36:53 20:41:00 40° 262° (W) 20:45:08 .
XW-2A 23 Jan 20:47:22 20:48:22 11° 271° (W) 20:49:22 145.665 - 145.685
UNISAT 6 23 Jan 20:53:06 20:54:50 12° 86° (E) 20:56:33 437.425
nSIGHT-1 23 Jan 21:04:42 21:07:51 82° 158° (SSE) 21:11:02 .
FO-29 23 Jan 21:07:49 21:13:02 77° 288° (WNW) 21:18:18 435.910
NO-84 23 Jan 21:16:38 21:19:07 26° 16° (NNE) 21:21:35 435.350 FM
ISS 23 Jan 21:29:52 21:33:08 90° 115° (ESE) 21:36:26 437.550
LO-87 23 Jan 21:30:57 21:32:01 11° 60° (ENE) 21:33:05 145.935 - 145.965
DELFI C3 23 Jan 21:38:02 21:41:44 41° 262° (W) 21:45:27 145.870
Max Valier Satellite 23 Jan 21:40:05 21:43:46 56° 259° (W) 21:47:28 145.860
ESTCUBE 1 23 Jan 21:42:59 21:45:54 17° 60° (ENE) 21:48:50 437.505/2401.250
EO-88 23 Jan 21:51:43 21:55:20 61° 259° (W) 21:58:59 145.990 - 145.960
STRAND 1 23 Jan 21:52:07 21:55:25 17° 303° (WNW) 21:58:42 437.568
AO-85 23 Jan 21:58:20 22:00:30 13° 252° (WSW) 22:02:43 145.980
TIGRISAT 23 Jan 22:11:20 22:16:01 59° 100° (E) 22:20:38 435.000
UNISAT 6 23 Jan 22:27:27 22:32:13 90° 133° (SE) 22:36:54 437.425
YUBILEINY 23 Jan 22:31:19 22:39:32 46° 87° (E) 22:47:42 435.215
SPROUT 23 Jan 22:39:34 22:42:01 15° 59° (ENE) 22:44:29 437.525
nSIGHT-1 23 Jan 22:41:10 22:44:13 42° 355° (N) 22:47:16 .
NO-84 23 Jan 22:53:38 22:56:26 63° 215° (SW) 22:59:17 435.350 FM
FO-29 23 Jan 22:55:04 22:57:18 13° 308° (NW) 22:59:31 435.910
LO-87 23 Jan 23:01:19 23:04:52 71° 257° (WSW) 23:08:28 145.935 - 145.965
VELOX 1 23 Jan 23:05:36 23:08:23 17° 60° (ENE) 23:11:10 145.980
ISS 23 Jan 23:06:41 23:09:50 42° 356° (N) 23:12:59 437.550
EO-79 23 Jan 23:15:31 23:16:44 11° 87° (E) 23:17:57 145.935-145.965
ESTCUBE 1 23 Jan 23:17:43 23:22:13 66° 258° (WSW) 23:26:44 437.505/2401.250
PRISM 23 Jan 23:19:20 23:23:25 70° 103° (ESE) 23:27:29 437.425
O/OREOS (USA 219) 23 Jan 23:19:29 23:22:11 16° 100° (E) 23:24:53 437.305
TIGRISAT 23 Jan 23:48:52 23:52:16 20° 299° (WNW) 23:55:41 435.000
POLYITAN 1 23 Jan 23:49:28 23:53:01 24° 94° (E) 23:56:33 437.675
AIST 2D 23 Jan 23:56:40 00:00:08 80° 284° (WNW) 00:03:36 435.315
NANOSAT C BR1 24 Jan 00:01:59 00:05:44 29° 95° (E) 00:09:26 145.865
UNISAT 6 24 Jan 00:05:47 00:08:12 14° 303° (WNW) 00:10:38 437.425
SPROUT 24 Jan 00:13:09 00:17:23 69° 258° (WSW) 00:21:39 437.525
nSIGHT-1 24 Jan 00:17:34 00:20:42 56° 15° (NNE) 00:23:50 .
QB50P2 24 Jan 00:19:02 00:23:16 54° 100° (E) 00:27:27 145.880/145.840
YUBILEINY 24 Jan 00:27:52 00:36:19 48° 289° (WNW) 00:44:46 435.215
UKube-1 24 Jan 00:29:47 00:32:22 16° 59° (ENE) 00:34:58 .
VELOX 1 24 Jan 00:40:00 00:44:21 65° 258° (WSW) 00:48:44 145.980
ISS 24 Jan 00:43:23 00:46:38 61° 16° (NNE) 00:49:53 437.550
DUCHIFAT 1 24 Jan 00:43:32 00:47:48 67° 102° (ESE) 00:52:02 145.980
DX 1 24 Jan 00:46:45 00:50:38 34° 67° (ENE) 00:54:33 434.975-435.025
EO-79 24 Jan 00:48:46 00:53:05 84° 285° (WNW) 00:57:21 145.935-145.965
PRISM 24 Jan 00:56:02 00:58:10 14° 301° (WNW) 01:00:18 437.425
50 SAT 24 Jan 00:56:28 00:59:10 28° 69° (ENE) 01:01:53 437.505
O/OREOS (USA 219) 24 Jan 00:56:35 01:01:04 65° 298° (WNW) 01:05:33 437.305
POLYITAN 1 24 Jan 01:24:55 01:28:53 37° 292° (WNW) 01:32:50 437.675
MOZHAYETS 4 24 Jan 01:25:53 01:29:06 19° 60° (ENE) 01:32:20
ITUPSAT 1 24 Jan 01:26:07 01:28:14 13° 54° (NE) 01:30:23 437.325
BUGSAT 1 24 Jan 01:32:33 01:36:44 53° 100° (E) 01:40:53 437.445
NANOSAT C BR1 24 Jan 01:37:37 01:41:24 31° 293° (WNW) 01:45:11 145.865
AO-91 24 Jan 01:43:05 01:47:31 51° 100° (E) 01:52:22 145.960
nSIGHT-1 24 Jan 01:53:50 01:56:48 37° 214° (SSW) 01:59:46 .
Oscar 19 24 Jan 01:54:43 01:59:47 53° 100° (E) 02:04:49 437.125/150
QB50P2 24 Jan 01:55:40 01:58:40 19° 298° (WNW) 02:01:38 145.880/145.840
BEESAT 24 Jan 02:01:29 02:05:20 25° 62° (ENE) 02:09:14 436.000
UKube-1 24 Jan 02:03:37 02:07:54 67° 258° (WSW) 02:12:12 .
Gurwin Techsat 1B 24 Jan 02:05:42 02:10:53 51° 100° (E) 02:16:03 435.225
ISS 24 Jan 02:20:00 02:23:00 33° 215° (SW) 02:25:59 437.550
DUCHIFAT 1 24 Jan 02:20:25 02:22:58 16° 300° (WNW) 02:25:29 145.980
DX 1 24 Jan 02:23:08 02:26:51 27° 265° (W) 02:30:35 434.975-435.025
EO-79 24 Jan 02:26:44 02:28:06 11° 304° (WNW) 02:29:29 145.935-145.965
50 SAT 24 Jan 02:28:54 02:30:55 16° 267° (W) 02:32:58 437.505
AO-7 24 Jan 02:31:13 02:36:44 19° 87° (E) 02:42:11 .
YUBILEINY 24 Jan 02:32:44 02:35:54 12° 316° (NW) 02:39:05 435.215
O/OREOS (USA 219) 24 Jan 02:39:40 02:41:24 12° 319° (NW) 02:43:08 437.305
ITUPSAT 1 24 Jan 03:00:30 03:05:17 80° 73° (ENE) 03:10:07 437.325
MOZHAYETS 4 24 Jan 03:01:13 03:05:48 62° 259° (W) 03:10:27
BUGSAT 1 24 Jan 03:08:43 03:11:43 19° 298° (WNW) 03:14:41 437.445
ITAMSAT 1 24 Jan 03:09:08 03:12:10 15° 89° (E) 03:15:12 435.822/435.867
CUBESAT XI-V 24 Jan 03:12:50 03:17:20 49° 71° (ENE) 03:21:52 437.345
AO-91 24 Jan 03:20:13 03:23:44 23° 295° (WNW) 03:27:31 145.960
Oscar 19 24 Jan 03:34:37 03:38:48 25° 299° (WNW) 03:42:57 437.125/150
BEESAT 24 Jan 03:38:17 03:42:51 46° 261° (W) 03:47:29 436.000
Gurwin Techsat 1B 24 Jan 03:46:09 03:50:34 27° 299° (WNW) 03:54:58 435.225
SO-50 24 Jan 03:52:23 03:53:11 10° 107° (ESE) 03:54:00 436.795
KKS-1 24 Jan 04:07:16 04:11:05 30° 65° (ENE) 04:14:56 437.445
STARS 24 Jan 04:15:08 04:17:48 16° 59° (ENE) 04:20:30 437.465
AO-7 24 Jan 04:22:22 04:30:49 80° 108° (ESE) 04:39:10 .
FALCONSAT 3 24 Jan 04:28:35 04:29:42 11° 174° (S) 04:30:50 435.103
ITUPSAT 1 24 Jan 04:41:13 04:43:42 14° 272° (W) 04:46:11 437.325
ITAMSAT 1 24 Jan 04:47:02 04:52:16 81° 287° (WNW) 04:57:29 435.822/435.867
M-CUBED/EXP-1 PRIME 24 Jan 04:47:09 04:48:34 12° 96° (E) 04:49:58 437.505
CUBESAT XI-V 24 Jan 04:51:22 04:54:57 22° 268° (W) 04:58:34 437.345
DOVE 4 24 Jan 05:08:19 05:12:37 54° 100° (E) 05:17:10 437.250
SO-50 24 Jan 05:28:21 05:32:48 76° 125° (SE) 05:37:22 436.795
XW-2F 24 Jan 05:32:50 05:34:24 12° 89° (E) 05:35:58 145.980 - 146.000
FO-29 24 Jan 05:41:51 05:44:50 14° 53° (NE) 05:47:40 435.910
KKS-1 24 Jan 05:43:35 05:47:34 33° 263° (W) 05:51:36 437.445
XW-2D 24 Jan 05:44:34 05:47:16 19° 92° (E) 05:49:57 145.860 - 145.880
RS-15 24 Jan 05:45:54 05:50:49 13° 91° (E) 05:55:39 29.354- 29.394
STARS 24 Jan 05:49:18 05:53:38 68° 258° (WSW) 05:58:01 437.465
STRAND 1 24 Jan 05:53:13 05:57:22 26° 61° (ENE) 06:01:32 437.568
XW-2B 24 Jan 06:01:54 06:05:09 27° 95° (E) 06:08:23 145.730 - 145.750
FALCONSAT 3 24 Jan 06:07:21 06:07:51 10° 190° (S) 06:08:21 435.103
AO-7 24 Jan 06:15:51 06:22:50 31° 310° (NW) 06:29:47 .
M-CUBED/EXP-1 PRIME 24 Jan 06:20:04 06:23:18 45° 295° (WNW) 06:26:25 437.505
ITAMSAT 1 24 Jan 06:28:09 06:30:56 15° 306° (NW) 06:33:43 435.822/435.867
SEEDS 24 Jan 06:28:10 06:29:00 10° 87° (E) 06:29:51 437.485
XW-2C 24 Jan 06:32:09 06:35:54 62° 101° (ESE) 06:39:35 145.795 - 145.815
LilacSat-2 24 Jan 06:34:18 06:38:06 72° 102° (ESE) 06:41:50 437.200
HO-68 24 Jan 06:38:10 06:44:24 31° 94° (E) 06:50:34 435.675
CUTE-I 24 Jan 06:43:57 06:49:14 58° 102° (ESE) 06:54:29 437.470
CUTE 1.7 + AOD 2 24 Jan 06:45:14 06:48:48 26° 94° (E) 06:52:20 437.475
DOVE 4 24 Jan 06:46:54 06:50:00 19° 297° (WNW) 06:53:13 437.250
KAITUO 1B 24 Jan 06:57:22 07:01:05 87° 103° (ESE) 07:04:45 145.475/437.950
NUDT-PHONESAT 24 Jan 07:02:00 07:05:42 88° 284° (WNW) 07:09:21 437.300
XW-2F 24 Jan 07:05:11 07:08:53 58° 286° (WNW) 07:12:31 145.980 - 146.000
SO-50 24 Jan 07:10:08 07:13:46 23° 327° (NNW) 07:17:28 436.795
XW-2D 24 Jan 07:18:05 07:21:35 37° 290° (WNW) 07:25:03 145.860 - 145.880
FO-29 24 Jan 07:22:36 07:29:06 69° 72° (ENE) 07:34:51 435.910
UWE-3 24 Jan 07:30:25 07:34:36 31° 95° (E) 07:38:42 435.000/436.395/437.385
STRAND 1 24 Jan 07:31:20 07:36:16 50° 260° (W) 07:41:15 437.568
CUBEBUG 2 24 Jan 07:32:00 07:36:42 55° 100° (E) 07:41:20 437.445
AAUSAT CUBESAT 2 24 Jan 07:32:36 07:35:51 22° 93° (E) 07:39:04 437.432
XW-2B 24 Jan 07:36:06 07:39:16 26° 293° (WNW) 07:42:23 145.730 - 145.750
TIGRISAT 24 Jan 07:40:12 07:41:36 11° 55° (NE) 07:43:01 435.000
ZACube-1 24 Jan 07:46:34 07:50:18 24° 92° (E) 07:53:58 437.345
O/OREOS (USA 219) 24 Jan 07:46:43 07:47:48 11° 39° (NE) 07:48:53 437.305
RS-15 24 Jan 07:48:33 08:00:22 56° 115° (ESE) 08:12:00 29.354- 29.394
AO-73 24 Jan 07:51:11 07:54:52 24° 92° (E) 07:58:28 145.935
UNISAT 6 24 Jan 07:54:48 07:57:37 17° 59° (ENE) 08:00:28 437.425
SEEDS 24 Jan 08:01:05 08:05:16 83° 287° (WNW) 08:09:25 437.485
XW-2A 24 Jan 08:02:30 08:05:35 33° 97° (E) 08:08:38 145.665 - 145.685
XW-2C 24 Jan 08:07:46 08:09:35 13° 299° (WNW) 08:11:24 145.795 - 145.815
LilacSat-2 24 Jan 08:10:23 08:11:49 12° 300° (WNW) 08:13:15 437.200
AO-7 24 Jan 08:11:51 08:12:55 10° 335° (NNW) 08:14:00 .
Oscar 11 24 Jan 08:20:26 08:24:11 28° 94° (E) 08:27:55 .
CUTE 1.7 + AOD 2 24 Jan 08:20:53 08:24:40 33° 292° (WNW) 08:28:26 437.475
CUTE-I 24 Jan 08:24:42 08:28:55 24° 300° (WNW) 08:33:08 437.470
HO-68 24 Jan 08:25:31 08:32:33 62° 293° (WNW) 08:39:34 435.675
YUBILEINY 24 Jan 08:36:45 08:44:00 28° 61° (ENE) 08:51:10 435.215
SO-50 24 Jan 08:54:48 08:55:54 11° 351° (N) 08:57:01 436.795
PCSat 24 Jan 08:59:43 09:04:25 31° 111° (ESE) 09:09:09 145.827
UWE-3 24 Jan 09:06:49 09:11:02 34° 293° (WNW) 09:15:12 435.000/436.395/437.385
AAUSAT CUBESAT 2 24 Jan 09:07:37 09:11:25 37° 291° (WNW) 09:15:12 437.432
Max Valier Satellite 24 Jan 09:08:33 09:09:18 10° 88° (E) 09:10:04 145.860
CUBEBUG 2 24 Jan 09:09:19 09:12:56 22° 298° (WNW) 09:16:32 437.445
FO-29 24 Jan 09:09:38 09:14:35 22° 268° (W) 09:19:09 435.910
DELFI C3 24 Jan 09:11:28 09:14:16 18° 92° (E) 09:17:04 145.870
TIGRISAT 24 Jan 09:12:58 09:17:26 75° 74° (ENE) 09:22:03 435.000
ZACube-1 24 Jan 09:22:26 09:26:43 41° 291° (WNW) 09:30:55 437.345
BEESAT 3 24 Jan 09:22:39 09:26:33 57° 124° (SE) 09:30:29 437.485
O/OREOS (USA 219) 24 Jan 09:23:49 09:28:15 56° 60° (ENE) 09:32:39 437.305
AO-73 24 Jan 09:26:58 09:31:15 41° 291° (WNW) 09:35:26 145.935
UNISAT 6 24 Jan 09:29:17 09:33:45 71° 258° (WSW) 09:38:22 437.425
XW-2A 24 Jan 09:35:46 09:38:03 17° 295° (WNW) 09:40:18 145.665 - 145.685
SEEDS 24 Jan 09:39:22 09:40:14 11° 303° (WNW) 09:41:05 437.485
Oscar 11 24 Jan 09:56:28 10:00:21 32° 292° (WNW) 10:04:10 .
RS-15 24 Jan 10:00:48 10:12:58 60° 320° (NW) 10:24:52 29.354- 29.394
DUCHIFAT 1 24 Jan 10:06:57 10:07:26 10° 56° (NE) 10:07:54 145.980
EO-79 24 Jan 10:10:44 10:13:03 14° 59° (ENE) 10:15:22 145.935-145.965
PRISM 24 Jan 10:11:25 10:15:28 79° 74° (ENE) 10:19:32 437.425
HO-68 24 Jan 10:14:54 10:18:56 16° 315° (NW) 10:22:58 435.675
BEESAT 2 24 Jan 10:19:18 10:23:15 60° 124° (ESE) 10:27:16 435.950
YUBILEINY 24 Jan 10:33:05 10:41:50 79° 265° (W) 10:50:30 435.215
AIST 2D 24 Jan 10:33:29 10:36:56 59° 74° (ENE) 10:40:25 435.315
AO-85 24 Jan 10:36:02 10:37:58 13° 109° (ESE) 10:39:58 145.980
SO-50 24 Jan 10:36:23 10:38:27 13° 17° (NNE) 10:40:32 436.795
Max Valier Satellite 24 Jan 10:39:53 10:43:34 67° 286° (WNW) 10:47:12 145.860
PCSat 24 Jan 10:42:22 10:47:37 50° 311° (NW) 10:52:55 145.827
POLYITAN 1 24 Jan 10:45:03 10:48:44 29° 66° (ENE) 10:52:26 437.675
DELFI C3 24 Jan 10:45:28 10:49:11 41° 289° (WNW) 10:52:54 145.870
EO-88 24 Jan 10:49:58 10:53:37 78° 284° (WNW) 10:57:13 145.990 - 145.960
TIGRISAT 24 Jan 10:52:26 10:54:42 14° 273° (W) 10:57:00 435.000
NANOSAT C BR1 24 Jan 10:57:02 11:00:50 33° 67° (ENE) 11:04:40 145.865
BEESAT 3 24 Jan 11:01:08 11:04:22 23° 323° (NW) 11:07:36 437.485
O/OREOS (USA 219) 24 Jan 11:04:11 11:07:13 18° 259° (W) 11:10:15 437.305
ESTCUBE 1 24 Jan 11:07:10 11:10:30 20° 92° (E) 11:13:49 437.505/2401.250
QB50P2 24 Jan 11:14:29 11:18:40 63° 73° (ENE) 11:22:55 145.880/145.840
Oscar 19 24 Jan 11:37:54 11:41:25 19° 57° (ENE) 11:44:57 437.125/150
DUCHIFAT 1 24 Jan 11:38:06 11:42:18 76° 73° (ENE) 11:46:33 145.980
EO-79 24 Jan 11:44:01 11:48:15 73° 257° (WSW) 11:52:32 145.935-145.965
AO-7 24 Jan 11:47:13 11:50:32 13° 31° (NNE) 11:53:52 .
PRISM 24 Jan 11:50:20 11:51:16 11° 272° (W) 11:52:13 437.425
Gurwin Techsat 1B 24 Jan 11:52:33 11:56:17 20° 57° (ENE) 12:00:00 435.225
SPROUT 24 Jan 11:56:03 11:58:44 16° 90° (E) 12:01:23 437.525
LO-87 24 Jan 11:57:32 12:01:12 87° 102° (ESE) 12:04:50 145.935 - 145.965
BEESAT 2 24 Jan 11:58:02 12:01:18 23° 324° (NW) 12:04:34 435.950
AIST 2D 24 Jan 12:09:38 12:10:28 11° 271° (W) 12:11:20 435.315
AO-85 24 Jan 12:13:37 12:17:39 77° 308° (NW) 12:22:03 145.980
SO-50 24 Jan 12:16:00 12:20:17 34° 40° (NE) 12:24:36 436.795
RS-15 24 Jan 12:17:30 12:28:28 36° 352° (N) 12:39:03 29.354- 29.394
POLYITAN 1 24 Jan 12:20:38 12:24:26 31° 264° (W) 12:28:17 437.675
BUGSAT 1 24 Jan 12:25:08 12:29:09 57° 72° (ENE) 12:33:16 437.445
VELOX 1 24 Jan 12:27:01 12:30:05 18° 91° (E) 12:33:08 145.980
PCSat 24 Jan 12:29:05 12:32:20 16° 335° (NNW) 12:35:36 145.827
YUBILEINY 24 Jan 12:31:48 12:37:09 18° 286° (WNW) 12:42:29 435.215
NANOSAT C BR1 24 Jan 12:32:59 12:36:33 27° 265° (W) 12:40:11 145.865
ESTCUBE 1 24 Jan 12:43:14 12:47:35 49° 290° (WNW) 12:51:53 437.505/2401.250
AO-91 24 Jan 12:44:31 12:47:51 53° 72° (ENE) 12:51:25 145.960
QB50P2 24 Jan 12:52:28 12:54:52 15° 271° (W) 12:57:17 145.880/145.840
Oscar 19 24 Jan 13:14:57 13:20:10 77° 257° (WSW) 13:25:24 437.125/150
DUCHIFAT 1 24 Jan 13:16:49 13:18:29 12° 272° (W) 13:20:10 145.980
Gurwin Techsat 1B 24 Jan 13:30:21 13:35:40 75° 257° (WSW) 13:41:00 435.225
SPROUT 24 Jan 13:30:44 13:34:59 59° 288° (WNW) 13:39:11 437.525
AO-7 24 Jan 13:33:29 13:41:02 40° 55° (NE) 13:48:36 .
50 SAT 24 Jan 13:39:26 13:41:02 13° 92° (E) 13:42:38 437.505
UKube-1 24 Jan 13:48:02 13:50:37 15° 90° (E) 13:53:10 .
AO-85 24 Jan 13:55:56 13:58:52 18° 332° (NNW) 14:01:57 145.980
SO-50 24 Jan 13:56:23 14:00:53 45° 239° (WSW) 14:05:25 436.795
BUGSAT 1 24 Jan 14:02:27 14:04:54 15° 270° (W) 14:07:21 437.445
VELOX 1 24 Jan 14:02:33 14:06:50 53° 289° (WNW) 14:11:07 145.980
DX 1 24 Jan 14:06:52 14:10:55 37° 98° (E) 14:14:58 434.975-435.025
AO-91 24 Jan 14:23:48 14:24:50 11° 272° (W) 14:25:53 145.960
ITAMSAT 1 24 Jan 14:29:54 14:34:31 35° 64° (ENE) 14:39:11 435.822/435.867
RS-15 24 Jan 14:33:23 14:44:44 44° 26° (NNE) 14:55:30 29.354- 29.394
MOZHAYETS 4 24 Jan 14:53:00 14:56:46 24° 93° (E) 15:00:29
ITUPSAT 1 24 Jan 14:58:34 15:01:28 16° 89° (E) 15:04:20 437.325
Oscar 19 24 Jan 14:58:52 15:00:20 11° 275° (W) 15:01:49 437.125/150
50 SAT 24 Jan 15:09:59 15:12:53 35° 289° (WNW) 15:15:45 437.505
Gurwin Techsat 1B 24 Jan 15:15:09 15:16:32 11° 275° (W) 15:17:54 435.225
UKube-1 24 Jan 15:22:45 15:27:01 61° 288° (WNW) 15:31:16 .
AO-7 24 Jan 15:25:15 15:33:29 61° 256° (WSW) 15:41:48 .
M-CUBED/EXP-1 PRIME 24 Jan 15:33:58 15:37:49 37° 64° (ENE) 15:41:25 437.505
BEESAT 24 Jan 15:34:35 15:38:56 33° 96° (E) 15:43:16 436.000
DX 1 24 Jan 15:43:20 15:46:57 26° 296° (WNW) 15:50:33 434.975-435.025
NO-84 24 Jan 15:47:49 15:50:00 17° 134° (SE) 15:52:06 435.350 FM
BEESAT 3 24 Jan 15:59:01 16:01:55 19° 34° (NE) 16:04:46 437.485
PCSat 24 Jan 16:00:32 16:04:03 17° 28° (NNE) 16:07:33 145.827
ITAMSAT 1 24 Jan 16:09:12 16:13:57 37° 263° (W) 16:18:45 435.822/435.867
XW-2F 24 Jan 16:17:32 16:18:48 11° 60° (ENE) 16:20:05 145.980 - 146.000
